Current Version              Previous Version:    01  02  03  04  05  06  07  08  09  10  11  12  13  14  15  16  17  18  19  20  21  22  23  24  25  26  27  28  29  30  
   31  32  33  34  35  36  37  38  39  40  41  42  43  44  45  46  47  48  49  50  51  52  53  54  55  56  57  58  59  60  

[Printable]
234
ASUS44 KEWX 271702
RWRTX
SOUTH TEXAS REGIONAL WEATHER ROUNDUP
NATIONAL WEATHER SERVICE AUSTIN/SAN ANTONIO TX
1200 PM CDT WED AUG 27 2014

NOTE: "FAIR" INDICATED FEW OR NO CLOUDS BELOW 12,000 FEET WITH NO
SIGNIFICANT WEATHER AND/OR OBSTRUCTIONS TO VISIBILITY.

* - THESE STATIONS ARE NOT NWS OR FAA STATIONS...AND ARE NOT SUBJECT
    TO NWS AND FAA QUALITY CONTROL.

TXZ171-172-183>190-271800-
TEXAS HILL COUNTRY AND EDWARDS PLATEAU

CITY           SKY/WX    TMP DP  RH WIND       PRES   REMARKS
JUNCTION       SUNNY     87  68  52 NE5       30.10S HX  90
*LLANO         MOSUNNY   90  66  45 E12       30.10S HX  92
BURNET         PTSUNNY   87  66  49 NE3       30.10F
*HORSESHOE BAY MOSUNNY   86  66  50 CALM      30.08S
*KERRVILLE     MOSUNNY   85  68  56 SE5       30.10S
*FREDERICKSBRG MOSUNNY   87  64  44 NE6       30.09F
*ROCKSPRINGS   MOSUNNY   84  66  54 CALM      30.15R
*BOERNE STAGE  MOSUNNY   88  64  45 E5        30.09S
*CASTROVILLE   PTSUNNY   90  64  42 SE9       30.05F HX  91
HONDO            N/A    N/A N/A N/A MISG      30.07R
*UVALDE        SUNNY     88  66  48 E6        30.05F HX  90
DEL RIO        SUNNY     90  68  48 S6        30.03S HX  94
LAUGHLIN AFB   SUNNY     89  69  50 S5        30.05R HX  93
CARRIZO SPRGS  SUNNY     91  66  43 SE6       30.02S HX  94
$$

TXZ173-191>194-202-209-217>225-228-271800-
CENTRAL AND SOUTH CENTRAL TEXAS

CITY           SKY/WX    TMP DP  RH WIND       PRES   REMARKS
GEORGETOWN     SUNNY     88  70  55 NE6       30.06F HX  92
AUSTIN/BERGSTM PTSUNNY   91  70  49 NE10      30.04S HX  96
AUSTIN/MABRY   PTSUNNY   90  69  50 E7        30.05F HX  94
*AUSTIN/EXEC   MOSUNNY   88  70  55 E12       30.05F HX  92
*LAGO VISTA    PTSUNNY   86  68  53 E5        30.09S
SAN MARCOS     PTSUNNY   91  66  43 NE7       30.05F HX  94
NEW BRAUNFELS  MOSUNNY   91  67  44 E12G17    30.03S HX  94
RANDOLPH AFB   MOSUNNY   90  67  45 E6        30.04F HX  93
PT SAN ANTONIO MOSUNNY   91  69  48 E7        30.03S HX  95
SAN ANTONIO    MOSUNNY   89  68  49 VRB3      30.05S HX  93
STINSON FIELD  MOSUNNY   91  68  46 NE10      30.02S HX  95
*PLEASANTON    MOSUNNY   92  66  42 NE3G16    30.03S HX  94
*LA GRANGE     MOSUNNY   92  68  44 E10       30.01S HX  96
*GIDDINGS      MOSUNNY   90  64  41 NE12G17   30.07F HX  91
*GONZALES      MOSUNNY   92  68  45 NE10G17   30.02S HX  95
$$

TXZ163>164-176>182-195>201-210>213-226-227-235-271800-
SOUTHEAST TEXAS

CITY           SKY/WX    TMP DP  RH WIND       PRES   REMARKS
COLLEGE STN    MOSUNNY   91  64  40 E9G16     30.03F HX  92
*BRYAN         MOSUNNY   91  65  42 E10G16    30.04F HX  93
*CALDWELL      PTSUNNY   88  63  42 NE7       30.08S
*CROCKETT      SUNNY     90  70  51 NE8       30.08F HX  95
*BRENHAM       SUNNY     90  67  46 N7        30.03F HX  93
HUNTSVILLE     PTSUNNY   88  65  46 VRB5      30.03F HX  90
CONROE         MOSUNNY   89  65  44 E8        30.03F HX  91
HOUSTON BUSH   MOSUNNY   91  70  49 NE12      30.01S HX  97
HOUSTON HOBBY  MOSUNNY   89  72  56 E10G18    29.99F HX  96
*HOUSTON SW AP MOSUNNY   89  69  51 NE12G18   30.00S HX  94
PEARLAND       MOSUNNY   88  72  58 E13G28    30.01S HX  94
HOUSTON HOOKS  PTSUNNY   90  69  50 NE9G16    30.01F HX  94
ELLINGTON FLD  NOT AVBL
SUGAR LAND     MOSUNNY   90  70  51 E12       29.99F HX  95
*HOUSTON EXEC  NOT AVBL
*CLEVELAND MUN SUNNY     89  73  59 CALM      30.03S HX  97
*WHARTON       SUNNY     90  68  48 NE10G18   29.99F HX  94
$$

TXZ214>216-236>238-271800-
THE UPPER TEXAS COAST

CITY           SKY/WX    TMP DP  RH WIND       PRES   REMARKS
*ORANGE        PTSUNNY   86  72  62 NE9       30.03S HX  92
PORT ARTHUR    PTSUNNY   88  74  63 E12       30.00S HX  96
GALVESTON      MOSUNNY   82  79  90 NE15      30.00R HX  92
ANGLETON       CLOUDY    82  77  84 E6        29.99R HX  90
*BAY CITY      PTSUNNY   91  73  55 E12       29.98S HX  99
PALACIOS       PTSUNNY   89  72  56 NE16G24   29.97S HX  96
$$

TXZ229>234-239>247-271800-
TEXAS COASTAL BEND AND RIO GRANDE PLAINS

CITY           SKY/WX    TMP DP  RH WIND       PRES   REMARKS
VICTORIA       MOSUNNY   94  71  47 NE12      29.99S HX 101
*BEEVILLE      MOSUNNY   93  67  41 NE13      30.00S HX  96
ROCKPORT       MOSUNNY   91  72  53 NE14G23   29.97S HX  98
*PORT ARANSAS  LGT RAIN  85  76  75 NE13G20   29.97R HX  94
*PORT LAVACA   SUNNY     91  73  56 NE13G20   29.98S HX  99
*INGLESIDE     MOSUNNY   90  71  54 N13       29.97S HX  97
CORPUS CHRISTI PTSUNNY   93  71  48 NE14G21   29.97S HX 100
CORPUS NAS     MOSUNNY   91  75  59 NE17      29.97R HX 101
*ROBSTOWN      MOSUNNY   92  69  46 NE6G16    29.98S HX  97
ALICE          MOSUNNY   94  69  44 NE9       29.98S HX  99
KINGSVILLE NAS PTSUNNY   92  73  53 N10       29.98S HX 100
COTULLA        SUNNY     92  66  42 NE13      30.02R HX  94
*FAITH RANCH   SUNNY     90  68  48 NE5       30.03S HX  93
LAREDO         SUNNY     92  69  46 E5        30.03S HX  96
$$

TXZ248>255-271800-
DEEP SOUTH TEXAS

CITY           SKY/WX    TMP DP  RH WIND       PRES   REMARKS
BROWNSVILLE    MOSUNNY   95  73  48 N9        29.95S HX 104
PORT ISABEL    MOSUNNY   93  72  50 N15       29.95S HX 101
*SOUTH PADRE   SUNNY     90  77  66 N13       29.96R HX 102
HARLINGEN      MOSUNNY   91  71  51 N7G16     29.95S HX  97
*HEBBRONVILLE  MOSUNNY   88  67  49 NE8       30.02S HX  91
MCALLEN        MOSUNNY   92  70  48 NE5       29.97S HX  97
*WESLACO       PTSUNNY   91  69  49 N6        29.96S HX  96
FALFURRIAS     MOSUNNY   92  66  42 NE10      29.97F HX  95
EDINBURG       MOSUNNY   94  67  42 N13G18    29.97S HX  97
*ZAPATA        SUNNY     93  66  40 CALM      29.99S HX  95
$$

TXZ213>215-236>238-242>244-246-247-251-254-255-271800-
CMAN STATIONS

STATION/POSITION TIME  TEMP    WIND        PRES    WAVE
                       AIR SEA DIR/SP/G            HT/PER
                 (UTC) (F)     (DEG/KT/KT) (MB)    (FT/S)
SABINE PASS      1600   82 86  100/  8/ 12 1016.5
SEA RIM ST PARK  1600   82     130/  6/  9 1016.5
NORTH JETTY/GLS  1600   80 84   90/ 14/ 16   N/A
EAGLE POINT      1600   82 86  100/ 12/ 14 1016.0
MORGANS POINT    1600   84      80/ 11/ 14 1015.8
MISSION/ARANSAS  1600   84      30/ 14     1016.0
PORT O`CONNOR    1600           20/ 16/ 18   N/A
PORT ARANSAS     1600   84 83   20/ 14/ 17 1015.1
MALAQUITE BEACH  1600   84 86   20/ 14/ 17 1014.3
BAFFIN BAY       1600   84 82   20/ 12/ 15 1014.8
PORT ISABEL      1600   85 82  360/  2/ 11 1014.6
$$

GMZ080-GMZ150>470-271800-
OFFSHORE BUOY REPORTS

STATION/POSITION TIME  TEMP    WIND        PRES    WAVE
                       AIR SEA DIR/SP/G            HT/PER
                 (UTC) (F)     (DEG/KT/KT) (MB)    (FT/S)
20 E GALVESTON   1700   82 87   50/ 17/ 21 1014.8    4/ 6
90 E PT ARANSAS  1700   83 86   70/ 17/ 19 1013.0    7/ 7
35 NE PT MANSFLD 1600   82 85   20/ 16/ 21 1013.1    5/ 7
200 E PT ISABEL  1600   85 87  210/ 10/ 12 1012.7    4/ 8
$$